STARLINK-30860, 58234

Orbit data source: Space-Track

STARLINK-30860, 58234 is a payload satellite owned by SpaceX/Seattle (US) in LEO that was launched on Wed, 08 Nov 2023 UTC via an FALCON 9 launch vehicle from the Air Force Eastern Test Range (AFETR). Payload-class satellites include a variety of spacecraft equipped with specific instruments for various scientific and technological missions. These include communications satellites like Starlink; space stations such as the ISS; scientific satellites like the Hubble; Earth observation satellites from companies like Planet Labs, Umbra, and HawkEye 360; GPS; miniature CubeSats for education and research; and military/defense satellites.

Loading next visibility...
Identifier
58234, 2023-171E
Orbit
LEO
Country
Flag of USUS
Related business
Manufacturer
SpaceX/Seattle
Mission
Operational Commercial Communications
Bus & Motor
STARLINK V2M, Unknown motor
Mass
730 kg wet, ~700 kg dry
Launch date (UTC)
2023-11-08 (3 years ago)
Launch vehicle
FALCON 9
Launch site
Air Force Eastern Test Range (AFETR)
Object type
Payload
Rocket body
Debris
Shape & HBR
Box + 2 Pan, 17.7 m
Radar Cross Section
33.884 m², Large (>1 m²)

Expand to show TLE details & history
Last TLE update: 2 days ago

TLE from 2 days ago
0 STARLINK-30860
1 58234U 23171E   26171.04732840  .00000039  00000-0  10961-4 0  9994
2 58234  43.0031  66.7620 0001327 266.1535  93.9165 15.27582118145398
Epoch: 2026-06-20T01:08Z
TLE epoch observation values (Epoch: 2026-06-20T01:08:09.173Z)
Latitude
-0.00003°
Longitude
141.45619°
Altitude
482.881 km
Speed
7.626 km/s
True Right ascension
04h 27m 02s
True Declination
0° 00' 00"
Sunlit
Object was in daylight at epoch
Visualization orbit readout
Latitude
Unknown
Longitude
Unknown
Altitude
Unknown
Speed
Unknown
Apparent Right ascension
Unknown
Apparent Declination
Unknown
Sunlit
N/A
Visualization observer readout
Local Sidereal Time
21:32:01
Azimuth
Unknown
Elevation
Unknown
Doppler factor
Unknown
Orbital elements
Apogee altitude
485.898 km
Perigee altitude
484.077 km
Semi-major axis
6,863.124 km
Eccentricity
0.00013
Inclination
43.0031°
RAAN
66.762°
Arg. of periapsis
266.1535°
True anomaly
93.93167°
Mean anomaly
93.9165°
Eccentric anomaly
93.92409°
Mean motion
3.81734 °/min
Orbital period
94.31 mins
BSTAR
0.000010961
Loading maneuver chart data...
Computing Atmospheric mass density...
Loading historical data...
Loading historical data...
Loading historical data...
Loading historical data...
Loading historical data...
Loading historical data...
Loading historical data...

Documentation

Showing up to 5 results
|